THORAD AGENA D DEB, 42534

Orbit data source: Space-Track

THORAD AGENA D DEB, 42534 is space debris in SSO originally from a launch on Wed, 08 Apr 1970 UTC launched from the Air Force Western Test Range (AFWTR). Debris objects in space refer to the collection of defunct objects orbiting the Earth. Examples of debris include non-operational satellites, rocket bodies, and fragments generated from explosions, collisions, or faulty payload assembly.

Loading next visibility...
Identifier
42534, 1970-025SQ
Orbit
SSO
Country
Flag of USUS
Related business
Manufacturer
Unknown
Mission
Spacecraft
Bus & Motor
Unknown
Mass
Unknown
Launch date (UTC)
1970-04-08 (56 years ago)
Launch vehicle
Unknown
Launch site
Air Force Western Test Range (AFWTR)
Object type
Payload
Rocket body
Debris
Shape & HBR
Unknown shape, 0.1 m
Radar Cross Section
Small (<0.1 m²)

Expand to show TLE details & history
Last TLE update: 16 hours ago

TLE from 16 hours ago
0 THORAD AGENA D DEB
1 42534U 70025SQ  26125.20575194  .00000518  00000-0  18416-2 0  9997
2 42534 101.7257 228.0845 0195037 182.6398 177.3684 12.95608316582769
Epoch: 2026-05-05T04:56Z
TLE epoch observation values (Epoch: 2026-05-05T04:56:16.967Z)
Latitude
0.00001°
Longitude
-69.07013°
Altitude
1,431.205 km
Speed
7.076 km/s
True Right ascension
15h 12m 20s
True Declination
0° 00' 00"
Sunlit
Object was in full shadow at epoch
Visualization orbit readout
Latitude
Unknown
Longitude
Unknown
Altitude
Unknown
Speed
Unknown
Apparent Right ascension
Unknown
Apparent Declination
Unknown
Sunlit
N/A
Visualization observer readout
Local Sidereal Time
04:23:24
Azimuth
Unknown
Elevation
Unknown
Doppler factor
Unknown
Orbital elements
Apogee altitude
1,426.13 km
Perigee altitude
1,127.53 km
Semi-major axis
7,654.967 km
Eccentricity
0.0195
Inclination
101.7257°
RAAN
228.0845°
Arg. of periapsis
182.6398°
True anomaly
177.46857°
Mean anomaly
177.3684°
Eccentric anomaly
177.41873°
Mean motion
3.24062 °/min
Orbital period
111.09 mins
BSTAR
0.0018416
Loading maneuver chart data...
Computing Atmospheric mass density...

Documentation

Showing up to 5 results
|